Change the Weather History Date:

Monday, June 17, 2013

  Actual Average Record
Temperature  
Mean Temperature 65 °F 58 °F  
Max Temperature 82 °F 72 °F 93 °F (1961)
Min Temperature 47 °F 45 °F 33 °F (1954)
Degree Days  
Heating Degree Days 0 7  
Month to date heating degree days 117 139  
Since 1 June heating degree days 117 139  
Since 1 July heating degree days 7383 7962  
Cooling Degree Days 0 0  
Month to date cooling degree days 0 0  
Year to date cooling degree days 0 3  
Since 1 June cooling degree days 0 0  
Growing Degree Days 14 (Base 50)    
Moisture  
Dew Point 49 °F    
Average Humidity 58    
Maximum Humidity 86    
Minimum Humidity 30    
Precipitation  
Precipitation T in 0.09 in 1.74 in (2014)
Month to date precipitation 0.74 1.50  
Year to date precipitation 7.04 8.11  
Snow  
Snow 0.00 in - - ()
Month to date snowfall 0.0  
Year to date snowfall 10.1  
Since 1 July snowfall 18.9  
Snow Depth 0.00 in    
Sea Level Pressure  
Sea Level Pressure 29.93 in    
Wind  
Wind Speed 4 mph (NNE)    
Max Wind Speed 14 mph    
Max Gust Speed 17 mph    
Visibility 10 miles    
Events Rain , Thunderstorm    
T = Trace of Precipitation, MM = Missing Value Source: NWS Daily Summary

Daily Weather History Graph

Daily Weather History Graph

Search for Another Location

Airport or City:

Trip Planner

Search our weather history database for the weather conditions in past years. The results will help you decide how hot, cold, wet, or windy it might be!

Date:

Astronomy

Jun. 17, 2013 Rise Set
Actual Time 5:35 AM MDT 9:40 PM MDT
Civil Twilight 4:53 AM MDT 10:22 PM MDT
Nautical Twilight 3:55 AM MDT 11:21 PM MDT
Astronomical Twilight 2:07 AM MDT 1:09 AM MDT
Moon 3:00 PM MDT (6/17) 1:40 AM MDT (6/17)
Length of Visible Light 17h 28m
Length of Day
16h 05m
First Quarter, 61% of the Moon is Illuminated
Jun 17
First Quarter
Jun 23
Full
Jun 29
Last Quarter
Jul 8
New
Jul 15
First Quarter

Hourly Weather History & Observations

Time (MDT) Temp. Heat Index Dew Point Humidity Pressure Visibility Wind Dir Wind Speed Gust Speed Precip Events Conditions
12:55 AM 57.9 °F - 46.0 °F 65% 29.99 in 10.0 mi North 5.8 mph - N/A   Clear
1:55 AM 53.1 °F - 45.0 °F 74% 30.00 in 10.0 mi SSW 3.5 mph - N/A   Clear
2:55 AM 53.1 °F - 46.0 °F 77% 30.01 in 10.0 mi Calm Calm - N/A   Clear
3:55 AM 48.0 °F - 44.1 °F 86% 30.02 in 10.0 mi Calm Calm - N/A   Clear
4:55 AM 55.0 °F - 45.0 °F 69% 29.99 in 10.0 mi Calm Calm - N/A   Clear
5:55 AM 52.0 °F - 45.0 °F 77% 29.99 in 10.0 mi NNE 5.8 mph - N/A   Clear
6:55 AM 57.9 °F - 46.0 °F 65% 29.98 in 10.0 mi North 5.8 mph - N/A   Clear
7:55 AM 61.0 °F - 48.0 °F 62% 29.98 in 10.0 mi NNE 9.2 mph - N/A   Clear
8:55 AM 64.9 °F - 48.0 °F 54% 29.98 in 10.0 mi NE 11.5 mph - N/A   Clear
9:55 AM 66.0 °F - 48.9 °F 54% 29.99 in 10.0 mi Variable 3.5 mph - N/A   Clear
10:55 AM 70.0 °F - 50.0 °F 49% 29.98 in 10.0 mi East 4.6 mph - N/A   Clear
11:55 AM 73.0 °F - 48.9 °F 42% 29.97 in 10.0 mi Variable 3.5 mph - N/A   Clear
12:55 PM 75.9 °F - 48.9 °F 38% 29.94 in 10.0 mi East 5.8 mph - N/A   Clear
1:55 PM 78.1 °F - 46.9 °F 33% 29.92 in 10.0 mi Calm Calm - N/A   Clear
2:55 PM 81.0 °F - 46.0 °F 29% 29.89 in 10.0 mi South 5.8 mph - N/A   Clear
3:46 PM 77.0 °F - 44.6 °F 32% 29.92 in 10.0 mi South 5.8 mph - N/A Thunderstorm Thunderstorm
3:55 PM 77.0 °F - 46.9 °F 34% 29.91 in 10.0 mi SW 5.8 mph - N/A   Scattered Clouds
4:55 PM 81.0 °F - 50.0 °F 34% 29.87 in 10.0 mi South 8.1 mph - 0.00 in   Clear
5:55 PM 77.0 °F - 53.1 °F 43% 29.86 in 10.0 mi NNE 4.6 mph - 0.00 in Rain Light Rain
6:55 PM 80.1 °F 79.9 °F 53.1 °F 39% 29.83 in 10.0 mi NNE 6.9 mph - 0.00 in   Partly Cloudy
7:55 PM 75.9 °F - 57.0 °F 52% 29.82 in 10.0 mi Calm Calm - N/A   Clear
8:55 PM 72.0 °F - 57.0 °F 59% 29.82 in 10.0 mi WNW 3.5 mph - N/A   Clear
9:55 PM 64.0 °F - 55.9 °F 75% 29.84 in 10.0 mi WNW 5.8 mph - N/A   Clear
10:55 PM 60.1 °F - 54.0 °F 80% 29.84 in 10.0 mi Calm Calm - N/A   Clear
11:55 PM 57.9 °F - 53.1 °F 84% 29.83 in 10.0 mi NW 3.5 mph - 0.00 in   Clear